Weather History for Kirksville, MO

Change the Weather History Date:

Monday, August 26, 2013

  Actual Average Record
Temperature  
Mean Temperature 83 °F 72 °F  
Max Temperature 97 °F 83 °F 108 °F (1936)
Min Temperature 68 °F 61 °F 48 °F (1962)
Degree Days  
Heating Degree Days 0 0  
Month to date heating degree days 5 0  
Since 1 June heating degree days 49 17  
Since 1 July heating degree days 13 1  
Cooling Degree Days 18 7  
Month to date cooling degree days 183 242  
Year to date cooling degree days 715 809  
Since 1 June cooling degree days 647 747  
Growing Degree Days 32 (Base 50)    
Moisture  
Dew Point 67 °F    
Average Humidity 60    
Maximum Humidity 87    
Minimum Humidity 33    
Precipitation  
Precipitation 0.00 in 0.13 in 2.39 in (1944)
Month to date precipitation T 3.05  
Year to date precipitation 29.89 26.64  
Sea Level Pressure  
Sea Level Pressure 30.11 in    
Wind  
Wind Speed 7 mph (SW)    
Max Wind Speed 15 mph    
Max Gust Speed 20 mph    
Visibility 10 miles    
Events      
T = Trace of Precipitation, MM = Missing Value Source: NWS Daily Summary

Daily Weather History Graph

Daily Weather History Graph

Search for Another Location

Airport:

Trip Planner

Search our weather history database for the weather conditions in past years. The results will help you decide how hot, cold, wet, or windy it might be!

Date:

Astronomy

Aug. 26, 2013 Rise Set
Actual Time 6:32 AM CDT 7:50 PM CDT
Civil Twilight 6:04 AM CDT 8:18 PM CDT
Nautical Twilight 5:30 AM CDT 8:52 PM CDT
Astronomical Twilight 4:54 AM CDT 9:27 PM CDT
Moon 11:01 PM CDT (8/26) 12:34 PM CDT (8/26)
Length of Visible Light 14h 14m
Length of Day
13h 18m
Waning Gibbous, 66% of the Moon is Illuminated
Aug 26
Waning Gibbous
Aug 28
Last Quarter
Sep 5
New
Sep 12
First Quarter
Sep 19
Full

Hourly Weather History & Observations

Time (CDT) Temp. Heat Index Dew Point Humidity Pressure Visibility Wind Dir Wind Speed Gust Speed Precip Events Conditions
12:55 AM 71.1 °F - 63.0 °F 75% 30.16 in 10.0 mi SSW 5.8 mph - N/A   Clear
1:55 AM 71.1 °F - 64.0 °F 78% 30.15 in 10.0 mi SSW 6.9 mph - N/A   Clear
2:55 AM 71.1 °F - 64.0 °F 78% 30.15 in 10.0 mi SSW 5.8 mph - N/A   Clear
3:55 AM 71.1 °F - 64.9 °F 81% 30.15 in 9.0 mi SSW 5.8 mph - N/A   Clear
4:55 AM 70.0 °F - 64.9 °F 84% 30.15 in 9.0 mi SSW 4.6 mph - N/A   Clear
5:55 AM 69.1 °F - 64.9 °F 87% 30.16 in 8.0 mi SSW 3.5 mph - N/A   Clear
6:55 AM 68.0 °F - 64.9 °F 90% 30.17 in 6.0 mi SSW 3.5 mph - N/A   Clear
7:55 AM 73.0 °F - 66.9 °F 81% 30.18 in 7.0 mi SSW 4.6 mph - N/A   Clear
8:55 AM 79.0 °F - 69.1 °F 72% 30.18 in 9.0 mi SSW 8.1 mph - N/A   Clear
9:55 AM 82.0 °F 85.5 °F 69.1 °F 65% 30.18 in 10.0 mi SW 6.9 mph - N/A   Clear
10:55 AM 88.0 °F 93.8 °F 71.1 °F 57% 30.17 in 10.0 mi WSW 6.9 mph - N/A   Clear
11:55 AM 91.0 °F 95.6 °F 69.1 °F 48% 30.15 in 10.0 mi West 8.1 mph 18.4 mph N/A   Clear
12:55 PM 93.0 °F 96.4 °F 66.9 °F 42% 30.13 in 10.0 mi West 9.2 mph 16.1 mph N/A   Partly Cloudy
1:55 PM 97.0 °F 102.2 °F 68.0 °F 39% 30.11 in 10.0 mi SSW 10.4 mph 17.3 mph N/A   Mostly Cloudy
2:55 PM 93.0 °F 95.0 °F 64.9 °F 39% 30.08 in 10.0 mi SSW 8.1 mph - N/A   Partly Cloudy
3:55 PM 96.1 °F 97.3 °F 63.0 °F 33% 30.07 in 10.0 mi SSW 6.9 mph 17.3 mph N/A   Partly Cloudy
4:55 PM 93.9 °F 95.6 °F 64.0 °F 37% 30.06 in 10.0 mi WSW 8.1 mph 17.3 mph N/A   Scattered Clouds
5:55 PM 93.0 °F 95.0 °F 64.9 °F 39% 30.06 in 10.0 mi SW 6.9 mph - N/A   Clear
6:55 PM 90.0 °F 92.4 °F 66.0 °F 45% 30.05 in 10.0 mi SW 6.9 mph - N/A   Clear
7:55 PM 84.9 °F 87.6 °F 66.9 °F 55% 30.05 in 10.0 mi SSW 4.6 mph - N/A   Clear
8:55 PM 82.0 °F 84.9 °F 68.0 °F 62% 30.04 in 10.0 mi SSW 6.9 mph - N/A   Clear
9:55 PM 82.0 °F 85.5 °F 69.1 °F 65% 30.04 in 10.0 mi SSW 8.1 mph - N/A   Clear
10:55 PM 80.1 °F 83.2 °F 70.0 °F 71% 30.05 in 10.0 mi SSW 6.9 mph - N/A   Clear
11:55 PM 78.1 °F - 70.0 °F 76% 30.06 in 10.0 mi SW 4.6 mph - N/A   Clear